Weather History for Lakeland Region, FL

Change the Weather History Date:

Tuesday, March 26, 2013

  Actual Average Record
Temperature  
Mean Temperature 50 °F -  
Max Temperature 59 °F 77 °F 91 °F (2002)
Min Temperature 42 °F 57 °F 42 °F (2006)
Degree Days  
Heating Degree Days 14    
Moisture  
Dew Point 32 °F    
Average Humidity 52    
Maximum Humidity 71    
Minimum Humidity 29    
Precipitation  
Precipitation 0.00 in - - ()
Sea Level Pressure  
Sea Level Pressure 30.14 in    
Wind  
Wind Speed 9 mph (NW)    
Max Wind Speed 24 mph    
Max Gust Speed 32 mph    
Visibility 13 miles    
Events      
Averages and records for this station are not official NWS values.
T = Trace of Precipitation, MM = Missing Value Source: NWS Daily Summary

Daily Weather History Graph

Daily Weather History Graph

Search for Another Location

Airport:

Trip Planner

Search our weather history database for the weather conditions in past years. The results will help you decide how hot, cold, wet, or windy it might be!

Date:

Astronomy

Mar. 26, 2013 Rise Set
Actual Time 7:24 AM EDT 7:42 PM EDT
Civil Twilight 7:01 AM EDT 8:06 PM EDT
Nautical Twilight 6:33 AM EDT 8:33 PM EDT
Astronomical Twilight 6:06 AM EDT 9:01 PM EDT
Moon 7:16 PM EDT (3/26) 6:39 AM EDT (3/26)
Length of Visible Light 13h 04m
Length of Day
12h 17m
Waxing Gibbous, 99% of the Moon is Illuminated
Mar 26
Waxing Gibbous
Mar 27
Full
Apr 3
Last Quarter
Apr 10
New
Apr 18
First Quarter

Hourly Weather History & Observations

Time (EDT) Temp. Windchill Dew Point Humidity Pressure Visibility Wind Dir Wind Speed Gust Speed Precip Events Conditions
12:15 AM 50.0 °F - 41.0 °F 71% 30.07 in 10.0 mi West 4.6 mph - N/A   Clear
12:35 AM 51.8 °F - 41.0 °F 67% 30.07 in 10.0 mi WNW 4.6 mph - N/A   Clear
12:55 AM 51.8 °F - 41.0 °F 67% 30.07 in 10.0 mi WNW 8.1 mph - N/A   Clear
1:15 AM 53.6 °F - 41.0 °F 62% 30.07 in 10.0 mi NW 8.1 mph - N/A   Clear
1:35 AM 53.6 °F - 41.0 °F 62% 30.07 in 10.0 mi NW 8.1 mph - N/A   Clear
1:55 AM 53.6 °F - 41.0 °F 62% 30.07 in 10.0 mi NW 4.6 mph - N/A   Clear
2:15 AM 51.8 °F - 41.0 °F 67% 30.07 in 10.0 mi WNW 4.6 mph - N/A   Clear
2:35 AM 51.8 °F - 41.0 °F 67% 30.06 in 10.0 mi WNW 3.5 mph - N/A   Clear
2:55 AM 50.0 °F - 41.0 °F 71% 30.07 in 10.0 mi NNW 8.1 mph - N/A   Clear
3:15 AM 50.0 °F - 41.0 °F 71% 30.06 in 10.0 mi NNW 6.9 mph - N/A   Clear
3:35 AM 50.0 °F - 39.2 °F 66% 30.07 in 10.0 mi NNW 5.8 mph - N/A   Clear
3:55 AM 50.0 °F - 35.6 °F 58% 30.07 in 10.0 mi North 9.2 mph - N/A   Clear
4:15 AM 51.8 °F - 32.0 °F 47% 30.07 in 10.0 mi North 8.1 mph - N/A   Clear
4:35 AM 51.8 °F - 32.0 °F 47% 30.08 in 10.0 mi North 8.1 mph - N/A   Clear
4:55 AM 51.8 °F - 32.0 °F 47% 30.08 in 10.0 mi NNW 9.2 mph - N/A   Clear
5:15 AM 50.0 °F - 30.2 °F 47% 30.08 in 10.0 mi North 11.5 mph - N/A   Clear
5:35 AM 50.0 °F - 26.6 °F 40% 30.09 in 10.0 mi North 19.6 mph 25.3 mph N/A   Clear
5:50 AM 48.2 °F - 26.6 °F 43% 30.09 in 15.0 mi North 11.5 mph 17.3 mph N/A   Clear
5:55 AM 46.4 °F 40.7 °F 26.6 °F 46% 30.10 in 10.0 mi North 12.7 mph 19.6 mph N/A   Clear
6:15 AM 46.4 °F 40.4 °F 26.6 °F 46% 30.11 in 10.0 mi North 13.8 mph - N/A   Clear
6:35 AM 46.4 °F 41.9 °F 26.6 °F 46% 30.12 in 10.0 mi North 9.2 mph - N/A   Scattered Clouds
6:50 AM 48.2 °F - 24.8 °F 40% 30.13 in 15.0 mi North 9.2 mph - N/A   Scattered Clouds
7:50 AM 46.4 °F 42.9 °F 26.6 °F 46% 30.15 in 15.0 mi NNW 6.9 mph - N/A   Scattered Clouds
8:50 AM 46.4 °F 41.5 °F 24.8 °F 43% 30.18 in 15.0 mi NNW 10.4 mph - N/A   Mostly Cloudy
9:50 AM 50.0 °F - 24.8 °F 37% 30.19 in 15.0 mi NNW 16.1 mph 24.2 mph N/A   Scattered Clouds
10:50 AM 51.8 °F - 26.6 °F 38% 30.20 in 15.0 mi NW 13.8 mph 21.9 mph N/A   Clear
11:50 AM 53.6 °F - 28.4 °F 38% 30.20 in 15.0 mi NW 15.0 mph 25.3 mph N/A   Clear
12:50 PM 57.2 °F - 26.6 °F 31% 30.19 in 15.0 mi WNW 20.7 mph 25.3 mph N/A   Clear
1:50 PM 57.2 °F - 26.6 °F 31% 30.19 in 15.0 mi NW 24.2 mph 32.2 mph N/A   Clear
3:50 PM 59.0 °F - 26.6 °F 29% 30.16 in 20.0 mi SSW 20.7 mph 29.9 mph N/A   Clear
4:50 PM 57.2 °F - 26.6 °F 31% 30.16 in 20.0 mi WNW 13.8 mph 29.9 mph N/A   Clear
5:53 PM 57.2 °F - 26.6 °F 31% 30.16 in 20.0 mi WNW 16.1 mph 25.3 mph N/A   Clear
6:56 PM 53.6 °F - 24.8 °F 33% 30.18 in 20.0 mi NW 16.1 mph - N/A   Clear
7:55 PM 50.0 °F - 30.2 °F 47% 30.20 in 20.0 mi WNW 11.5 mph - N/A   Clear
8:54 PM 48.2 °F - 32.0 °F 54% 30.23 in 20.0 mi NW 9.2 mph - N/A   Clear
9:50 PM 46.4 °F 42.9 °F 33.8 °F 62% 30.25 in 20.0 mi NW 6.9 mph - N/A   Clear
10:55 PM 44.6 °F 40.7 °F 33.8 °F 66% 30.26 in 10.0 mi NNW 6.9 mph - N/A   Clear
11:15 PM 44.6 °F 40.7 °F 33.8 °F 66% 30.26 in 10.0 mi NNW 6.9 mph - N/A   Clear
11:35 PM 42.8 °F 38.6 °F 33.8 °F 70% 30.26 in 10.0 mi NNW 6.9 mph - N/A   Clear
11:55 PM 42.8 °F 40.1 °F 33.8 °F 70% 30.26 in 10.0 mi NW 4.6 mph - N/A   Clear